When you browse on this site, cookies collect data to enhance your experience and personalize the content and advertising you see.
Visit our Privacy Policy to learn more. By continuing to use the site, you agree to this use of cookies and data.

Hourly Weather Aleksandrovka

Today, 11 August, Tuesday

Time Temperature Precipitation Wind Pressure Humidity
00:00 +22°C° 0 mm 1 mps 747 mmHg 64%
01:00 +21°C° 0 mm 1 mps 747 mmHg 64%
02:00 +21°C° 0 mm 1 mps 747 mmHg 65%
03:00 +21°C° 0 mm 1 mps 747 mmHg 67%
04:00 +20°C° 0 mm 1 mps 747 mmHg 69%
05:00 +20°C° 0 mm 1 mps 747 mmHg 72%
06:00 +22°C° 0.4 mm 1 mps 747 mmHg 67%
07:00 +23°C° 0.4 mm 1 mps 747 mmHg 63%
08:00 +25°C° 0.4 mm 1 mps 747 mmHg 59%
09:00 +25°C° 0 mm 1 mps 747 mmHg 59%
10:00 +25°C° 0 mm 1 mps 747 mmHg 58%
11:00 +26°C° 0 mm 1 mps 747 mmHg 57%
12:00 +27°C° 0.1 mm 1 mps 747 mmHg 54%
13:00 +27°C° 0.1 mm 1 mps 746 mmHg 50%
14:00 +28°C° 0.1 mm 1 mps 746 mmHg 47%
15:00 +28°C° 0.1 mm 1 mps 746 mmHg 47%
16:00 +28°C° 0.1 mm 2 mps 746 mmHg 46%
17:00 +28°C° 0.1 mm 2 mps 746 mmHg 46%
18:00 +26°C° 1.2 mm 2 mps 746 mmHg 57%
19:00 +24°C° 1.2 mm 2 mps 746 mmHg 69%
20:00 +20°C° 1.2 mm 2 mps 746 mmHg 80%
21:00 +20°C° 0.4 mm 2 mps 746 mmHg 82%
22:00 +19°C° 0.4 mm 2 mps 746 mmHg 85%
23:00 +19°C° 0.4 mm 2 mps 746 mmHg 87%

Tomorrow, 12 August, Wednesday

Time Temperature Precipitation Wind Pressure Humidity
00:00 +19°C° 0 mm 2 mps 745 mmHg 86%
01:00 +18°C° 0 mm 2 mps 745 mmHg 86%
02:00 +18°C° 0 mm 2 mps 745 mmHg 86%
03:00 +18°C° 0 mm 2 mps 745 mmHg 84%
04:00 +18°C° 0 mm 2 mps 745 mmHg 83%
05:00 +18°C° 0 mm 2 mps 745 mmHg 82%
06:00 +20°C° 0 mm 2 mps 745 mmHg 76%
07:00 +21°C° 0 mm 2 mps 745 mmHg 70%
08:00 +24°C° 0 mm 2 mps 745 mmHg 64%
09:00 +25°C° 0.4 mm 3 mps 745 mmHg 61%
10:00 +26°C° 0.4 mm 3 mps 745 mmHg 58%
11:00 +27°C° 0.4 mm 4 mps 745 mmHg 56%
12:00 +27°C° 0.5 mm 4 mps 745 mmHg 55%
13:00 +27°C° 0.5 mm 4 mps 745 mmHg 54%
14:00 +26°C° 0.5 mm 4 mps 745 mmHg 54%
15:00 +26°C° 0.2 mm 4 mps 745 mmHg 52%
16:00 +26°C° 0.2 mm 5 mps 746 mmHg 50%
17:00 +26°C° 0.2 mm 5 mps 746 mmHg 48%
18:00 +23°C° 0 mm 5 mps 746 mmHg 51%
19:00 +21°C° 0 mm 5 mps 746 mmHg 55%
20:00 +19°C° 0 mm 5 mps 746 mmHg 59%
21:00 +18°C° 0 mm 4 mps 747 mmHg 62%
22:00 +16°C° 0 mm 3 mps 747 mmHg 66%
23:00 +14°C° 0 mm 3 mps 747 mmHg 69%

Day after tomorrow, 13 August, Thursday

Time Temperature Precipitation Wind Pressure Humidity
00:00 +14°C° 0 mm 3 mps 747 mmHg 73%
01:00 +13°C° 0 mm 3 mps 747 mmHg 76%
02:00 +13°C° 0 mm 3 mps 747 mmHg 79%
03:00 +13°C° 0 mm 3 mps 747 mmHg 81%
04:00 +12°C° 0 mm 3 mps 747 mmHg 84%
05:00 +12°C° 0 mm 3 mps 747 mmHg 86%
06:00 +14°C° 0 mm 3 mps 747 mmHg 78%
07:00 +17°C° 0 mm 4 mps 748 mmHg 70%
08:00 +19°C° 0 mm 4 mps 748 mmHg 62%
09:00 +20°C° 0 mm 4 mps 748 mmHg 56%
10:00 +21°C° 0 mm 4 mps 748 mmHg 50%
11:00 +23°C° 0 mm 4 mps 748 mmHg 43%
12:00 +23°C° 0 mm 4 mps 747 mmHg 42%
13:00 +23°C° 0 mm 4 mps 747 mmHg 41%
14:00 +23°C° 0 mm 4 mps 747 mmHg 41%
15:00 +23°C° 0 mm 4 mps 747 mmHg 42%
16:00 +22°C° 0 mm 4 mps 747 mmHg 43%
17:00 +22°C° 0 mm 4 mps 747 mmHg 44%
18:00 +21°C° 0 mm 3 mps 747 mmHg 47%
19:00 +20°C° 0 mm 3 mps 747 mmHg 50%
20:00 +19°C° 0 mm 3 mps 748 mmHg 52%
21:00 +18°C° 0 mm 3 mps 748 mmHg 54%
22:00 +18°C° 0 mm 3 mps 748 mmHg 56%
23:00 +18°C° 0 mm 2 mps 748 mmHg 58%

14 August, Friday

Time Temperature Precipitation Wind Pressure Humidity
00:00 +17°C° 0 mm 2 mps 748 mmHg 61%
01:00 +16°C° 0 mm 2 mps 748 mmHg 65%
02:00 +16°C° 0 mm 2 mps 747 mmHg 68%
03:00 +15°C° 0 mm 2 mps 748 mmHg 71%
04:00 +15°C° 0 mm 2 mps 748 mmHg 74%
05:00 +14°C° 0 mm 2 mps 748 mmHg 77%
06:00 +16°C° 0 mm 2 mps 748 mmHg 71%
07:00 +17°C° 0 mm 2 mps 748 mmHg 66%
08:00 +19°C° 0 mm 3 mps 748 mmHg 61%
09:00 +19°C° 0.1 mm 3 mps 748 mmHg 57%
10:00 +20°C° 0.1 mm 3 mps 748 mmHg 53%
11:00 +21°C° 0.1 mm 4 mps 748 mmHg 49%
12:00 +21°C° 0 mm 4 mps 748 mmHg 48%
13:00 +21°C° 0 mm 4 mps 748 mmHg 47%
14:00 +21°C° 0 mm 4 mps 748 mmHg 46%
15:00 +21°C° 0 mm 4 mps 748 mmHg 45%
16:00 +21°C° 0 mm 4 mps 748 mmHg 44%
17:00 +20°C° 0 mm 4 mps 748 mmHg 43%
18:00 +19°C° 0 mm 4 mps 748 mmHg 47%
19:00 +17°C° 0 mm 4 mps 749 mmHg 51%
20:00 +14°C° 0 mm 3 mps 749 mmHg 54%
21:00 +14°C° 0 mm 3 mps 749 mmHg 57%
22:00 +13°C° 0 mm 3 mps 749 mmHg 60%
23:00 +12°C° 0 mm 3 mps 749 mmHg 62%

15 August, Saturday

Time Temperature Precipitation Wind Pressure Humidity
00:00 +13°C° 0 mm 2 mps 749 mmHg 64%
01:00 +12°C° 0 mm 2 mps 750 mmHg 66%
02:00 +12°C° 0 mm 2 mps 750 mmHg 68%
03:00 +12°C° 0 mm 2 mps 750 mmHg 69%
04:00 +10°C° 0 mm 2 mps 750 mmHg 71%
05:00 +10°C° 0 mm 2 mps 750 mmHg 72%
06:00 +13°C° 0 mm 2 mps 750 mmHg 65%
07:00 +16°C° 0 mm 2 mps 750 mmHg 59%
08:00 +18°C° 0 mm 3 mps 750 mmHg 52%
09:00 +19°C° 0 mm 3 mps 750 mmHg 48%
10:00 +20°C° 0 mm 3 mps 750 mmHg 43%
11:00 +21°C° 0 mm 3 mps 749 mmHg 39%
12:00 +22°C° 0 mm 3 mps 749 mmHg 37%
13:00 +24°C° 0 mm 3 mps 749 mmHg 36%
14:00 +24°C° 0 mm 3 mps 749 mmHg 34%
15:00 +24°C° 0 mm 3 mps 749 mmHg 35%
16:00 +24°C° 0 mm 3 mps 748 mmHg 35%
17:00 +24°C° 0 mm 3 mps 748 mmHg 36%
18:00 +21°C° 0 mm 2 mps 748 mmHg 41%
19:00 +19°C° 0 mm 2 mps 748 mmHg 47%
20:00 +17°C° 0 mm 2 mps 748 mmHg 52%
21:00 +16°C° 0 mm 2 mps 748 mmHg 54%
22:00 +16°C° 0 mm 2 mps 748 mmHg 56%
23:00 +15°C° 0 mm 2 mps 748 mmHg 58%

16 August, Sunday

Time Temperature Precipitation Wind Pressure Humidity
00:00 +15°C° 0 mm 1 mps 748 mmHg 59%
01:00 +14°C° 0 mm 1 mps 748 mmHg 60%
02:00 +14°C° 0 mm 1 mps 748 mmHg 61%
03:00 +14°C° 0 mm 1 mps 748 mmHg 62%
04:00 +14°C° 0 mm 1 mps 748 mmHg 63%
05:00 +14°C° 0 mm 1 mps 748 mmHg 64%
06:00 +16°C° 0 mm 1 mps 748 mmHg 58%
07:00 +19°C° 0 mm 1 mps 748 mmHg 52%
08:00 +21°C° 0 mm 1 mps 748 mmHg 45%
09:00 +22°C° 0 mm 1 mps 748 mmHg 43%
10:00 +24°C° 0 mm 1 mps 748 mmHg 40%
11:00 +25°C° 0 mm 1 mps 748 mmHg 37%
12:00 +24°C° 0 mm 0 mps 747 mmHg 36%
13:00 +24°C° 0 mm 0 mps 747 mmHg 35%
14:00 +25°C° 0 mm 0 mps 747 mmHg 34%
15:00 +24°C° 0 mm 0 mps 747 mmHg 35%
16:00 +26°C° 0 mm 1 mps 747 mmHg 37%
17:00 +25°C° 0 mm 1 mps 746 mmHg 39%
18:00 +24°C° 0.1 mm 2 mps 746 mmHg 47%
19:00 +21°C° 0.1 mm 2 mps 746 mmHg 55%
20:00 +19°C° 0.1 mm 3 mps 746 mmHg 62%
21:00 +19°C° 0.2 mm 3 mps 746 mmHg 66%
22:00 +18°C° 0.2 mm 3 mps 746 mmHg 69%
23:00 +17°C° 0.2 mm 4 mps 747 mmHg 72%
Show more